Flag for Brazil Weather past 2 weeks in Foz do Iguaçu, Paraná, Brazil

Now
55 °F

Clear.


Feels Like: 55 °F
Forecast: 53 / 85 °F
Wind: 2 mph from East

Location: Foz Do Iguacu Aeroporto

Current Time: Aug 29, 2015 at 12:32:08 AM

Latest Report: Aug 29, 2015 at 12:00 AM


Visibility: 10 mi

Pressure: 30.07 "Hg

Humidity: 88%

Dew point: 52 °F

Location of Foz do IguaçuLocation

Historic Weather in Foz do Iguaçu — Graph

°F

Foz do Iguaçu temperature yesterday

Maximum temperature yesterday: 82 °F (at 4:00 PM)
Minimum temperature yesterday: 48 °F (at 7:00 AM)
Average temperature yesterday: 64 °F

Past Weeks' High & Low Weather Summary

 TemperatureHumidityPressure
High88 °F (Aug 16, 3:00 PM)100% (Aug 16, 12:00 AM)30.18 "Hg (Aug 16, 12:00 AM)
Low46 °F (Aug 18, 10:00 AM)27% (Aug 16, 3:00 PM)29.68 "Hg (Aug 16, 7:00 AM)
Average68 °F73%29.99 "Hg
* Reported Aug 13 11:00 PM — Aug 28 11:00 PM, Foz do Iguaçu, Weather by CustomWeather, © 2015

Note: Actual official high and low records may vary slightly from our data, if they occured in-between our weather recording intervals... More about our weather records

Advertising

Foz do Iguaçu weather history for previous 24 hours

 ConditionsComfort  
Time TempWeatherWind HumidityBarometerVisibility
11:00 PM
Fri, Aug 28
59 °FClear.2 mph82%30.07 "Hg10 mi
10:00 PM63 °FClear.5 mph77%30.07 "Hg10 mi
9:00 PM63 °FClear.5 mph77%30.07 "Hg10 mi
8:00 PM66 °FClear.6 mph68%30.07 "Hg10 mi
7:00 PM66 °FClear.2 mph68%30.04 "Hg10 mi
6:00 PM75 °FClear.3 mph47%30.07 "Hg10 mi
5:00 PM81 °FSunny.5 mph30%30.07 "Hg10 mi
4:00 PM82 °FSunny.5 mph28%30.07 "Hg10 mi
3:00 PM81 °FSunny.6 mph34%30.09 "Hg10 mi
2:00 PM79 °FSunny.6 mph39%30.12 "Hg10 mi
1:00 PM77 °FSunny.6 mph47%30.15 "Hg10 mi
12:00 PM73 °FSunny.10 mph50%30.18 "Hg10 mi
11:00 AM70 °FSunny.12 mph57%30.18 "Hg10 mi
10:00 AM66 °FSunny.10 mph73%30.18 "Hg10 mi
9:00 AM61 °FClear.7 mph88%30.18 "HgN/A
8:00 AM55 °FSunny.6 mph94%30.18 "Hg10 mi
7:00 AM48 °FSnow. Cloudy.5 mph100%30.15 "Hg3 mi
6:00 AM50 °FSunny.2 mph100%30.12 "Hg10 mi
5:00 AM52 °FClear.1 mph100%30.12 "Hg10 mi
4:00 AM55 °FClear.6 mph94%30.09 "Hg10 mi
3:00 AM55 °FClear.6 mph94%30.09 "Hg10 mi
2:00 AM57 °FClear.7 mph94%30.09 "Hg10 mi
1:00 AM55 °FClear.3 mph100%30.12 "Hg10 mi
12:00 AM57 °FClear.3 mph100%30.12 "Hg10 mi
Weather by CustomWeather, © 2015

See weather overviewHow to use our weather pages